EZY7H LIRF-LSGG

Flight info

Callsign EZY7H
Flight time 1h 11m
Altitude 36000
Route NEMBO DCT GOVGO DCT SPEZI DCT IDONA DCT TONDA DCT AOSTA L615 BANKO
Aircraft A320/M-SDE3FGHIRWY/LB1

Departure

Time 2026-05-07 18:10
Airport Rome–Fiumicino Leonardo da Vinci International Airport (LIRF)

Arrival

Time 2026-05-07 19:22
Airport Geneva International Airport (LSGG)
Time Latitude Longitude Altitude Speed Heading
2026-05-07 17:47 41.80051 12.26411 15 ft 0 kts 70°
2026-05-07 18:04 41.80067 12.26451 16 ft 10 kts 40°
2026-05-07 18:04 41.80127 12.26435 15 ft 9 kts 310°
2026-05-07 18:05 41.80124 12.26348 16 ft 10 kts 255°
2026-05-07 18:05 41.80132 12.26249 16 ft 12 kts 294°
2026-05-07 18:05 41.80179 12.26109 16 ft 17 kts 294°
2026-05-07 18:05 41.80251 12.26057 15 ft 12 kts 26°
2026-05-07 18:06 41.80263 12.26065 17 ft 5 kts 25°
2026-05-07 18:06 41.80330 12.26105 15 ft 13 kts 24°
2026-05-07 18:06 41.80411 12.26154 15 ft 14 kts 23°
2026-05-07 18:06 41.80487 12.26192 15 ft 9 kts 24°
2026-05-07 18:07 41.80538 12.26272 15 ft 17 kts 66°
2026-05-07 18:07 41.80590 12.26458 17 ft 23 kts 69°
2026-05-07 18:07 41.80646 12.26660 15 ft 24 kts 69°
2026-05-07 18:07 41.80703 12.26867 15 ft 21 kts 70°
2026-05-07 18:08 41.80750 12.27016 15 ft 15 kts 53°
2026-05-07 18:08 41.80843 12.27028 15 ft 15 kts 342°
2026-05-07 18:08 41.80943 12.26978 14 ft 15 kts 338°
2026-05-07 18:08 41.80954 12.26910 13 ft 0 kts 249°
2026-05-07 18:09 41.80950 12.26897 13 ft 9 kts 249°
2026-05-07 18:09 41.80838 12.26486 17 ft 82 kts 249°
2026-05-07 18:09 41.80570 12.25519 18 ft 138 kts 250°
2026-05-07 18:10 41.80213 12.24132 201 ft 166 kts 254°
2026-05-07 18:10 41.79834 12.22664 843 ft 168 kts 251°
2026-05-07 18:10 41.79410 12.21177 1343 ft 179 kts 256°
2026-05-07 18:10 41.79273 12.19434 1630 ft 198 kts 271°
2026-05-07 18:11 41.79249 12.17468 2085 ft 223 kts 270°
2026-05-07 18:11 41.79217 12.16043 2338 ft 239 kts 270°
2026-05-07 18:11 41.79131 12.12883 3038 ft 264 kts 269°
2026-05-07 18:11 41.79059 12.10387 3811 ft 272 kts 268°
2026-05-07 18:12 41.79007 12.07837 4685 ft 276 kts 269°
2026-05-07 18:12 41.78996 12.05254 5598 ft 277 kts 270°
2026-05-07 18:12 41.78999 12.02663 6526 ft 279 kts 269°
2026-05-07 18:12 41.79005 12.00064 7389 ft 280 kts 269°
2026-05-07 18:13 41.79006 11.97448 8263 ft 281 kts 269°
2026-05-07 18:13 41.79004 11.94824 9131 ft 283 kts 269°
2026-05-07 18:13 41.78999 11.92183 10002 ft 284 kts 269°
2026-05-07 18:13 41.78989 11.89482 10480 ft 300 kts 269°
2026-05-07 18:14 41.78975 11.86580 10749 ft 320 kts 268°
2026-05-07 18:14 41.78963 11.83559 11349 ft 328 kts 268°
2026-05-07 18:14 41.78956 11.80474 12040 ft 332 kts 268°
2026-05-07 18:14 41.78948 11.77364 12760 ft 336 kts 268°
2026-05-07 18:15 41.78937 11.74218 13482 ft 340 kts 268°
2026-05-07 18:15 41.78921 11.71034 14156 ft 343 kts 268°
2026-05-07 18:15 41.78902 11.67837 14810 ft 345 kts 268°
2026-05-07 18:15 41.78883 11.64618 15512 ft 346 kts 268°
2026-05-07 18:16 41.78863 11.61380 16193 ft 348 kts 268°
2026-05-07 18:16 41.79035 11.58136 16854 ft 352 kts 278°
2026-05-07 18:16 41.79739 11.54982 17506 ft 357 kts 291°
2026-05-07 18:16 41.80968 11.52066 18156 ft 363 kts 303°
2026-05-07 18:17 41.82611 11.49461 18717 ft 368 kts 308°
2026-05-07 18:17 41.84306 11.46887 19335 ft 368 kts 308°
2026-05-07 18:17 41.85999 11.44311 19948 ft 369 kts 308°
2026-05-07 18:17 41.87693 11.41724 20538 ft 370 kts 308°
2026-05-07 18:18 41.89391 11.39125 21116 ft 371 kts 308°
2026-05-07 18:18 41.91097 11.36508 21690 ft 373 kts 308°
2026-05-07 18:18 41.92811 11.33881 22272 ft 375 kts 308°
2026-05-07 18:18 41.94531 11.31247 22840 ft 376 kts 308°
2026-05-07 18:19 41.96259 11.28594 23400 ft 378 kts 308°
2026-05-07 18:19 41.97995 11.25926 23868 ft 380 kts 308°
2026-05-07 18:19 41.99743 11.23239 24295 ft 382 kts 307°
2026-05-07 18:19 42.01495 11.20537 24707 ft 384 kts 307°
2026-05-07 18:20 42.03254 11.17826 25106 ft 387 kts 307°
2026-05-07 18:20 42.05031 11.15085 25497 ft 389 kts 307°
2026-05-07 18:20 42.06813 11.12333 25883 ft 391 kts 307°
2026-05-07 18:20 42.08601 11.09565 26308 ft 392 kts 306°
2026-05-07 18:21 42.10391 11.06793 26718 ft 393 kts 306°
2026-05-07 18:21 42.12193 11.04002 27104 ft 395 kts 306°
2026-05-07 18:21 42.13999 11.01203 27482 ft 396 kts 306°
2026-05-07 18:21 42.15809 10.98389 27849 ft 398 kts 306°
2026-05-07 18:22 42.17629 10.95560 28210 ft 400 kts 306°
2026-05-07 18:22 42.18243 10.94604 28330 ft 401 kts 306°
2026-05-07 18:22 42.21291 10.89871 28908 ft 404 kts 305°
2026-05-07 18:22 42.23135 10.87000 29241 ft 405 kts 305°
2026-05-07 18:23 42.24982 10.84121 29578 ft 407 kts 305°
2026-05-07 18:23 42.26854 10.81243 29895 ft 411 kts 308°
2026-05-07 18:23 42.29025 10.78673 30179 ft 420 kts 317°
2026-05-07 18:23 42.30664 10.77243 30341 ft 427 kts 324°
2026-05-07 18:24 42.33407 10.75568 30581 ft 438 kts 333°
2026-05-07 18:24 42.36281 10.74165 30820 ft 440 kts 333°
2026-05-07 18:24 42.39161 10.72751 31044 ft 442 kts 333°
2026-05-07 18:24 42.42055 10.71321 31277 ft 443 kts 332°
2026-05-07 18:25 42.44993 10.69868 31559 ft 443 kts 332°
2026-05-07 18:25 42.47889 10.68440 31869 ft 443 kts 332°
2026-05-07 18:25 42.50781 10.67012 32176 ft 442 kts 332°
2026-05-07 18:25 42.53671 10.65579 32500 ft 442 kts 332°
2026-05-07 18:26 42.56549 10.64145 32818 ft 441 kts 331°
2026-05-07 18:26 42.59427 10.62707 33124 ft 440 kts 331°
2026-05-07 18:26 42.62302 10.61273 33426 ft 440 kts 331°
2026-05-07 18:26 42.65177 10.59841 33729 ft 440 kts 331°
2026-05-07 18:27 42.68049 10.58408 34026 ft 439 kts 331°
2026-05-07 18:27 42.70918 10.56976 34309 ft 439 kts 330°
2026-05-07 18:27 42.73790 10.55543 34517 ft 440 kts 331°
2026-05-07 18:27 42.76661 10.54110 34822 ft 438 kts 331°
2026-05-07 18:28 42.79518 10.52678 35103 ft 437 kts 330°
2026-05-07 18:28 42.82369 10.51245 35335 ft 437 kts 330°
2026-05-07 18:28 42.85219 10.49816 35550 ft 437 kts 330°
2026-05-07 18:28 42.88070 10.48386 35750 ft 437 kts 330°
2026-05-07 18:29 42.90918 10.46954 35937 ft 437 kts 330°
2026-05-07 18:29 42.96601 10.44088 36000 ft 437 kts 330°
2026-05-07 18:30 43.02363 10.41172 35987 ft 445 kts 331°
2026-05-07 18:30 43.08191 10.38228 35993 ft 447 kts 331°
2026-05-07 18:31 43.14030 10.35275 35997 ft 447 kts 330°
2026-05-07 18:31 43.19347 10.31288 35990 ft 426 kts 313°
2026-05-07 18:32 43.23750 10.25956 35990 ft 422 kts 310°
2026-05-07 18:32 43.28140 10.20603 35992 ft 423 kts 310°
2026-05-07 18:33 43.32539 10.15231 36003 ft 423 kts 310°
2026-05-07 18:33 43.36935 10.09844 35999 ft 424 kts 310°
2026-05-07 18:34 43.41332 10.04449 36017 ft 424 kts 310°
2026-05-07 18:34 43.45727 9.99048 36012 ft 423 kts 310°
2026-05-07 18:35 43.50111 9.93636 36004 ft 423 kts 310°
2026-05-07 18:35 43.54496 9.88218 36002 ft 424 kts 310°
2026-05-07 18:36 43.58881 9.82796 36022 ft 424 kts 310°
2026-05-07 18:36 43.63271 9.77355 36039 ft 424 kts 310°
2026-05-07 18:37 43.67652 9.71901 36021 ft 424 kts 310°
2026-05-07 18:37 43.72028 9.66445 36018 ft 423 kts 310°
2026-05-07 18:38 43.76400 9.60991 36017 ft 424 kts 311°
2026-05-07 18:38 43.81434 9.56479 36017 ft 436 kts 322°
2026-05-07 18:39 43.86711 9.52352 36020 ft 435 kts 322°
2026-05-07 18:39 43.91979 9.48217 36017 ft 435 kts 322°
2026-05-07 18:40 43.97245 9.44074 36023 ft 435 kts 322°
2026-05-07 18:40 44.02118 9.39313 36018 ft 427 kts 315°
2026-05-07 18:41 44.06864 9.34345 36033 ft 427 kts 315°
2026-05-07 18:41 44.11614 9.29382 36024 ft 427 kts 315°
2026-05-07 18:42 44.16363 9.24410 36017 ft 427 kts 315°
2026-05-07 18:42 44.21104 9.19417 36014 ft 427 kts 315°
2026-05-07 18:43 44.25839 9.14422 36030 ft 427 kts 315°
2026-05-07 18:43 44.30583 9.09411 36016 ft 428 kts 315°
2026-05-07 18:44 44.35330 9.04386 36011 ft 429 kts 315°
2026-05-07 18:44 44.40090 8.99349 36004 ft 429 kts 315°
2026-05-07 18:45 44.44859 8.94294 35998 ft 430 kts 315°
2026-05-07 18:45 44.49610 8.89226 36000 ft 430 kts 315°
2026-05-07 18:46 44.54366 8.84141 35995 ft 430 kts 315°
2026-05-07 18:46 44.59132 8.79049 36004 ft 431 kts 315°
2026-05-07 18:47 44.63897 8.73953 36003 ft 430 kts 315°
2026-05-07 18:47 44.68656 8.68846 36023 ft 431 kts 315°
2026-05-07 18:48 44.73409 8.63718 35995 ft 431 kts 315°
2026-05-07 18:48 44.78174 8.58586 35986 ft 432 kts 316°
2026-05-07 18:49 44.82959 8.53425 35965 ft 434 kts 315°
2026-05-07 18:49 44.87784 8.48186 35993 ft 435 kts 316°
2026-05-07 18:50 44.92565 8.42999 35977 ft 437 kts 316°
2026-05-07 18:50 44.97423 8.37720 35977 ft 439 kts 316°
2026-05-07 18:51 45.02260 8.32452 35970 ft 440 kts 316°
2026-05-07 18:51 45.07105 8.27160 35974 ft 440 kts 316°
2026-05-07 18:52 45.11928 8.21821 35984 ft 440 kts 315°
2026-05-07 18:52 45.16529 8.16142 35980 ft 438 kts 312°
2026-05-07 18:53 45.20999 8.10281 35988 ft 438 kts 311°
2026-05-07 18:53 45.25502 8.04434 35979 ft 439 kts 312°
2026-05-07 18:54 45.30055 7.98632 35996 ft 440 kts 313°
2026-05-07 18:54 45.34632 7.92829 35991 ft 441 kts 313°
2026-05-07 18:55 45.39193 7.87010 35989 ft 441 kts 313°
2026-05-07 18:55 45.43764 7.81124 35993 ft 441 kts 313°
2026-05-07 18:56 45.48288 7.75274 36008 ft 442 kts 313°
2026-05-07 18:56 45.52839 7.69402 35990 ft 438 kts 313°
2026-05-07 18:56 45.55076 7.66531 35838 ft 427 kts 313°
2026-05-07 18:57 45.57263 7.63723 35585 ft 419 kts 313°
2026-05-07 18:57 45.59417 7.60949 35336 ft 414 kts 313°
2026-05-07 18:57 45.61538 7.58204 34895 ft 410 kts 313°
2026-05-07 18:57 45.63638 7.55474 34395 ft 407 kts 312°
2026-05-07 18:58 45.65722 7.52758 33909 ft 404 kts 312°
2026-05-07 18:58 45.67790 7.50060 33386 ft 401 kts 312°
2026-05-07 18:58 45.69841 7.47385 32910 ft 396 kts 312°
2026-05-07 18:58 45.71864 7.44745 32361 ft 392 kts 312°
2026-05-07 18:59 45.73871 7.42127 31909 ft 389 kts 313°
2026-05-07 18:59 45.75864 7.39524 31432 ft 386 kts 312°
2026-05-07 18:59 45.77644 7.36717 30967 ft 377 kts 301°
2026-05-07 18:59 45.78980 7.33533 30519 ft 369 kts 291°
2026-05-07 19:00 45.79612 7.31290 30218 ft 365 kts 284°
2026-05-07 19:00 45.80189 7.27779 29753 ft 359 kts 275°
2026-05-07 19:00 45.80483 7.24254 29324 ft 354 kts 275°
2026-05-07 19:00 45.80768 7.20784 28930 ft 348 kts 275°
2026-05-07 19:01 45.81048 7.17346 28410 ft 347 kts 275°
2026-05-07 19:01 45.81323 7.13953 28132 ft 339 kts 275°
2026-05-07 19:01 45.81592 7.10620 27765 ft 334 kts 274°
2026-05-07 19:01 45.81962 7.07363 27382 ft 331 kts 282°
2026-05-07 19:02 45.82739 7.04270 26977 ft 330 kts 293°
2026-05-07 19:02 45.83919 7.01446 26575 ft 331 kts 301°
2026-05-07 19:02 45.85221 6.98749 26167 ft 328 kts 301°
2026-05-07 19:02 45.86511 6.96063 25747 ft 326 kts 301°
2026-05-07 19:03 45.87791 6.93388 25332 ft 324 kts 301°
2026-05-07 19:03 45.89058 6.90729 24898 ft 322 kts 301°
2026-05-07 19:03 45.90318 6.88072 24473 ft 322 kts 301°
2026-05-07 19:03 45.91577 6.85410 24036 ft 322 kts 301°
2026-05-07 19:04 45.92838 6.82745 23585 ft 323 kts 302°
2026-05-07 19:04 45.94099 6.80076 23095 ft 322 kts 302°
2026-05-07 19:04 45.95356 6.77420 22671 ft 321 kts 302°
2026-05-07 19:04 45.96608 6.74767 22250 ft 319 kts 301°
2026-05-07 19:05 45.97839 6.72125 21848 ft 317 kts 301°
2026-05-07 19:05 45.99059 6.69488 21430 ft 316 kts 301°
2026-05-07 19:05 46.00273 6.66859 21021 ft 314 kts 301°
2026-05-07 19:05 46.01479 6.64245 20617 ft 314 kts 301°
2026-05-07 19:06 46.02701 6.61597 20210 ft 313 kts 301°
2026-05-07 19:06 46.05080 6.56433 19423 ft 310 kts 301°
2026-05-07 19:06 46.06278 6.53855 19025 ft 310 kts 302°
2026-05-07 19:07 46.07488 6.51295 18627 ft 309 kts 302°
2026-05-07 19:07 46.11159 6.43576 17403 ft 307 kts 302°
2026-05-07 19:08 46.12359 6.41035 17028 ft 306 kts 302°
2026-05-07 19:08 46.13553 6.38503 16649 ft 305 kts 302°
2026-05-07 19:08 46.14742 6.35981 16273 ft 304 kts 302°
2026-05-07 19:08 46.15929 6.33461 15888 ft 304 kts 302°
2026-05-07 19:09 46.17114 6.30932 15472 ft 305 kts 300°
2026-05-07 19:09 46.17953 6.28159 15108 ft 300 kts 281°
2026-05-07 19:09 46.18040 6.25190 14781 ft 296 kts 260°
2026-05-07 19:09 46.17402 6.22392 14446 ft 294 kts 240°
2026-05-07 19:10 46.16148 6.20077 14087 ft 292 kts 226°
2026-05-07 19:10 46.14735 6.17982 13442 ft 290 kts 226°
2026-05-07 19:10 46.13321 6.15900 12901 ft 291 kts 226°
2026-05-07 19:10 46.11916 6.13830 12578 ft 288 kts 226°
2026-05-07 19:11 46.10526 6.11777 12239 ft 286 kts 226°
2026-05-07 19:11 46.09142 6.09733 11895 ft 284 kts 225°
2026-05-07 19:11 46.07761 6.07717 11537 ft 282 kts 225°
2026-05-07 19:11 46.06379 6.05721 11208 ft 280 kts 225°
2026-05-07 19:12 46.05010 6.03745 10885 ft 278 kts 225°
2026-05-07 19:12 46.03645 6.01778 10544 ft 276 kts 224°
2026-05-07 19:12 46.02291 5.99829 10207 ft 275 kts 224°
2026-05-07 19:12 46.00972 5.97933 10045 ft 259 kts 224°
2026-05-07 19:13 45.99737 5.96162 9777 ft 245 kts 224°
2026-05-07 19:13 45.98539 5.94449 9256 ft 241 kts 224°
2026-05-07 19:13 45.97356 5.92755 8721 ft 238 kts 224°
2026-05-07 19:13 45.96270 5.90979 8140 ft 237 kts 240°
2026-05-07 19:14 45.95875 5.88699 7606 ft 240 kts 273°
2026-05-07 19:14 45.96401 5.86440 7241 ft 241 kts 305°
2026-05-07 19:14 45.97470 5.84629 7091 ft 236 kts 312°
2026-05-07 19:14 45.98641 5.82964 7000 ft 236 kts 323°
2026-05-07 19:15 46.00139 5.82076 6749 ft 235 kts 355°
2026-05-07 19:15 46.01764 5.82257 6394 ft 235 kts 11°
2026-05-07 19:15 46.03373 5.82729 6063 ft 235 kts 13°
2026-05-07 19:15 46.04937 5.83534 5991 ft 243 kts 36°
2026-05-07 19:16 46.06133 5.85096 6000 ft 224 kts 47°
2026-05-07 19:16 46.07214 5.86673 5758 ft 221 kts 47°
2026-05-07 19:16 46.08291 5.88241 5449 ft 219 kts 47°
2026-05-07 19:16 46.09363 5.89801 5170 ft 219 kts 47°
2026-05-07 19:17 46.10430 5.91352 4887 ft 217 kts 47°
2026-05-07 19:17 46.11482 5.92884 4580 ft 211 kts 46°
2026-05-07 19:17 46.12485 5.94345 4318 ft 198 kts 46°
2026-05-07 19:17 46.13420 5.95707 4069 ft 185 kts 46°
2026-05-07 19:18 46.14293 5.96981 3800 ft 172 kts 46°
2026-05-07 19:18 46.15097 5.98154 3597 ft 156 kts 45°
2026-05-07 19:18 46.15826 5.99217 3389 ft 143 kts 45°
2026-05-07 19:18 46.16513 6.00221 3203 ft 139 kts 45°
2026-05-07 19:19 46.17186 6.01204 3024 ft 137 kts 45°
2026-05-07 19:19 46.17859 6.02187 2843 ft 135 kts 45°
2026-05-07 19:19 46.18512 6.03142 2649 ft 136 kts 45°
2026-05-07 19:19 46.19186 6.04128 2463 ft 136 kts 46°
2026-05-07 19:20 46.19846 6.05092 2269 ft 137 kts 45°
2026-05-07 19:20 46.20524 6.06085 2075 ft 137 kts 45°
2026-05-07 19:20 46.21196 6.07069 1882 ft 137 kts 45°
2026-05-07 19:20 46.21857 6.08039 1714 ft 136 kts 45°
2026-05-07 19:21 46.22537 6.09031 1536 ft 138 kts 44°
2026-05-07 19:21 46.23201 6.10008 1416 ft 130 kts 44°
2026-05-07 19:21 46.23757 6.10816 1383 ft 91 kts 46°
2026-05-07 19:21 46.24094 6.11318 1375 ft 60 kts 46°
2026-05-07 19:22 46.24297 6.11680 1370 ft 32 kts 64°
2026-05-07 19:22 46.24340 6.11885 1366 ft 3 kts 85°
2026-05-07 19:23 46.24340 6.11900 1366 ft 7 kts 90°
2026-05-07 19:23 46.24295 6.11964 1362 ft 11 kts 191°
2026-05-07 19:23 46.24247 6.11883 1362 ft 10 kts 226°
2026-05-07 19:23 46.24203 6.11815 1363 ft 11 kts 230°
2026-05-07 19:24 46.24122 6.11693 1367 ft 18 kts 226°
2026-05-07 19:24 46.24046 6.11578 1370 ft 14 kts 226°
2026-05-07 19:24 46.23980 6.11483 1373 ft 16 kts 225°
2026-05-07 19:24 46.23868 6.11320 1377 ft 24 kts 225°
2026-05-07 19:25 46.23751 6.11149 1382 ft 23 kts 226°
2026-05-07 19:25 46.23649 6.10995 1390 ft 20 kts 227°
2026-05-07 19:25 46.23554 6.10857 1389 ft 19 kts 225°
2026-05-07 19:25 46.23457 6.10716 1391 ft 22 kts 225°
2026-05-07 19:26 46.23346 6.10564 1396 ft 22 kts 225°
2026-05-07 19:26 46.23235 6.10401 1396 ft 23 kts 225°
2026-05-07 19:26 46.23123 6.10229 1397 ft 24 kts 229°
2026-05-07 19:26 46.23051 6.10170 1393 ft 11 kts 155°
2026-05-07 19:27 46.22997 6.10243 1401 ft 10 kts 135°
2026-05-07 19:27 46.22957 6.10313 1395 ft 8 kts 108°
2026-05-07 19:27 46.22948 6.10378 1401 ft 6 kts 135°
2026-05-07 19:27 46.22924 6.10402 1398 ft 3 kts 149°
2026-05-07 19:28 46.22919 6.10405 1395 ft 0 kts 149°